�������l�o���
Date,Time,MP-1(��Sv/h),MP-2(��Sv/h),MP-3(��Sv/h),MP-4(��Sv/h),MP-5(��Sv/h),MP-6(��Sv/h),MP-7(��Sv/h),MP-8(��Sv/h),����,����(m/s),���J
2018/12/06,00:00,0.786,1.188,0.834,1.497,1.074,0.454,0.803,0.760,�k,3.1,��
2018/12/06,00:10,0.786,1.186,0.836,1.495,1.071,0.453,0.802,0.762,�k,2.8,��
2018/12/06,00:20,0.786,1.188,0.832,1.494,1.073,0.453,0.803,0.761,�k,2.9,��
2018/12/06,00:30,0.786,1.192,0.835,1.494,1.074,0.453,0.803,0.762,�k�k��,3.0,��
2018/12/06,00:40,0.787,1.189,0.833,1.495,1.074,0.452,0.802,0.761,�k�k��,2.0,��
2018/12/06,00:50,0.787,1.190,0.834,1.495,1.074,0.454,0.804,0.760,�k�k��,1.7,��
2018/12/06,01:00,0.787,1.188,0.834,1.493,1.074,0.453,0.801,0.760,�k�k��,2.3,��
2018/12/06,01:10,0.788,1.189,0.832,1.494,1.074,0.454,0.804,0.761,�k�k��,2.8,��
2018/12/06,01:20,0.788,1.190,0.835,1.494,1.075,0.452,0.803,0.760,�k�k��,2.8,��
2018/12/06,01:30,0.786,1.189,0.835,1.498,1.074,0.454,0.805,0.761,�k�k��,3.2,��
2018/12/06,01:40,0.786,1.191,0.835,1.496,1.072,0.453,0.803,0.761,�k�k��,3.3,��
2018/12/06,01:50,0.785,1.190,0.834,1.494,1.072,0.454,0.804,0.761,�k,3.5,��
2018/12/06,02:00,0.785,1.188,0.834,1.497,1.073,0.453,0.803,0.759,�k,3.7,��
2018/12/06,02:10,0.787,1.189,0.833,1.496,1.071,0.453,0.804,0.760,�k,3.8,��
2018/12/06,02:20,0.787,1.189,0.834,1.497,1.073,0.452,0.805,0.761,�k,4.0,��
2018/12/06,02:30,0.786,1.188,0.834,1.490,1.074,0.453,0.801,0.761,�k,4.4,��
2018/12/06,02:40,0.788,1.191,0.835,1.496,1.074,0.454,0.804,0.761,�k,3.9,��
2018/12/06,02:50,0.788,1.189,0.834,1.496,1.074,0.454,0.802,0.761,�k�k��,4.2,��
2018/12/06,03:00,0.787,1.189,0.836,1.495,1.074,0.454,0.804,0.761,�k�k��,5.3,��
2018/12/06,03:10,0.786,1.190,0.832,1.496,1.074,0.453,0.805,0.761,�k�k��,4.4,��
2018/12/06,03:20,0.786,1.188,0.835,1.497,1.073,0.453,0.805,0.761,�k�k��,4.7,��
2018/12/06,03:30,0.787,1.188,0.834,1.496,1.074,0.455,0.803,0.758,�k�k��,5.4,��
2018/12/06,03:40,0.786,1.189,0.836,1.497,1.075,0.453,0.804,0.762,�k�k��,4.8,��
2018/12/06,03:50,0.786,1.190,0.835,1.498,1.075,0.454,0.804,0.761,�k��,5.4,��
2018/12/06,04:00,0.786,1.188,0.834,1.495,1.072,0.455,0.803,0.761,�k�k��,4.4,��
2018/12/06,04:10,0.787,1.189,0.835,1.499,1.073,0.453,0.801,0.761,�k��,4.0,��
2018/12/06,04:20,0.788,1.189,0.836,1.496,1.073,0.453,0.803,0.760,�k��,4.3,��
2018/12/06,04:30,0.783,1.188,0.830,1.497,1.073,0.452,0.802,0.761,�k��,4.7,��
2018/12/06,04:40,0.786,1.189,0.832,1.497,1.075,0.453,0.802,0.760,�k�k��,5.4,��
2018/12/06,04:50,0.786,1.190,0.834,1.496,1.073,0.453,0.803,0.761,�k�k��,4.5,��
2018/12/06,05:00,0.786,1.189,0.834,1.495,1.074,0.453,0.804,0.761,�k�k��,4.2,��
2018/12/06,05:10,0.787,1.188,0.833,1.497,1.073,0.453,0.803,0.759,�k�k��,4.5,��
2018/12/06,05:20,0.785,1.189,0.833,1.495,1.074,0.452,0.802,0.761,�k��,4.6,��
2018/12/06,05:30,0.787,1.189,0.834,1.497,1.072,0.454,0.803,0.760,�k��,3.6,��
2018/12/06,05:40,0.787,1.186,0.833,1.496,1.074,0.453,0.805,0.761,�k��,4.6,��
2018/12/06,05:50,0.785,1.190,0.836,1.498,1.070,0.453,0.803,0.760,�k��,4.6,��
2018/12/06,06:00,0.785,1.189,0.835,1.496,1.073,0.452,0.805,0.761,�k�k��,5.1,��
2018/12/06,06:10,0.786,1.191,0.834,1.494,1.074,0.452,0.802,0.759,�k�k��,6.2,��
2018/12/06,06:20,0.785,1.188,0.835,1.495,1.072,0.451,0.803,0.761,�k�k��,6.3,��
2018/12/06,06:30,0.787,1.189,0.833,1.496,1.073,0.451,0.804,0.759,�k�k��,6.4,��
2018/12/06,06:40,0.786,1.189,0.832,1.495,1.074,0.452,0.801,0.762,�k�k��,6.0,��
2018/12/06,06:50,0.784,1.188,0.833,1.494,1.072,0.451,0.802,0.760,�k�k��,6.4,��
2018/12/06,07:00,0.786,1.185,0.834,1.496,1.073,0.451,0.802,0.761,�k�k��,6.7,��
2018/12/06,07:10,0.788,1.186,0.833,1.494,1.075,0.452,0.802,0.760,�k�k��,6.8,��
2018/12/06,07:20,0.785,1.187,0.833,1.497,1.074,0.452,0.802,0.763,�k�k��,5.6,�L
2018/12/06,07:30,0.786,1.187,0.832,1.494,1.071,0.454,0.803,0.761,�k�k��,8.2,�L
2018/12/06,07:40,0.786,1.188,0.833,1.496,1.071,0.453,0.801,0.760,�k�k��,7.3,�L
2018/12/06,07:50,0.786,1.186,0.834,1.493,1.073,0.453,0.802,0.760,�k�k��,9.4,�L
2018/12/06,08:00,0.787,1.188,0.835,1.495,1.073,0.452,0.801,0.759,�k�k��,8.8,�L
2018/12/06,08:10,0.783,1.188,0.831,1.494,1.071,0.451,0.801,0.759,�k�k��,8.2,�L
2018/12/06,08:20,0.785,1.189,0.834,1.496,1.070,0.452,0.801,0.761,�k�k��,8.9,�L
2018/12/06,08:30,0.786,1.186,0.830,1.498,1.073,0.453,0.802,0.760,�k�k��,8.6,�L
2018/12/06,08:40,0.785,1.185,0.832,1.497,1.074,0.453,0.803,0.760,�k�k��,7.8,�L
2018/12/06,08:50,0.786,1.186,0.834,1.497,1.074,0.453,0.805,0.761,�k�k��,8.1,�L
2018/12/06,09:00,0.786,1.187,0.836,1.496,1.076,0.454,0.803,0.760,�k��,7.6,�L
2018/12/06,09:10,0.785,1.185,0.832,1.495,1.074,0.454,0.804,0.759,�k��,7.5,�L
2018/12/06,09:20,0.786,1.184,0.836,1.495,1.074,0.454,0.804,0.760,�k��,6.2,�L
2018/12/06,09:30,0.787,1.183,0.834,1.496,1.070,0.455,0.803,0.760,�k��,6.4,�L
2018/12/06,09:40,0.788,1.183,0.835,1.496,1.073,0.457,0.805,0.760,�k��,6.8,�L
2018/12/06,09:50,0.785,1.179,0.834,1.494,1.069,0.456,0.804,0.760,�k��,7.7,�L
2018/12/06,10:00,0.784,1.178,0.834,1.494,1.067,0.456,0.802,0.760,�k��,7.8,�L
2018/12/06,10:10,0.785,1.173,0.834,1.494,1.067,0.457,0.801,0.759,�k��,8.4,�L
2018/12/06,10:20,0.786,1.174,0.834,1.493,1.065,0.457,0.801,0.759,�k��,8.2,�L
2018/12/06,10:30,0.784,1.173,0.830,1.488,1.065,0.455,0.804,0.758,�k��,6.9,�L
2018/12/06,10:40,0.784,1.173,0.832,1.492,1.063,0.454,0.801,0.758,�k��,7.3,��
2018/12/06,10:50,-,1.172,0.829,1.490,1.061,0.454,0.803,0.758,�k��,7.4,�L
2018/12/06,11:00,-,1.171,0.829,1.488,1.061,0.453,0.801,0.758,�k��,7.2,��
2018/12/06,11:10,-,1.170,0.831,1.489,1.062,0.453,0.802,0.757,�k��,6.9,��
2018/12/06,11:20,-,1.173,0.828,1.490,1.062,0.451,0.800,0.759,�k��,6.6,��
2018/12/06,11:30,-,1.170,0.828,1.489,1.058,0.453,0.801,0.757,�k��,6.9,�L
2018/12/06,11:40,-,1.170,0.828,1.490,1.059,0.451,0.801,0.757,�k��,6.5,�L
2018/12/06,11:50,-,1.171,0.825,1.488,1.062,0.451,0.802,0.757,�k��,6.4,�L
2018/12/06,12:00,-,1.173,0.827,1.489,1.061,0.452,0.800,0.757,�k��,6.7,�L
2018/12/06,12:10,-,1.174,0.830,1.488,1.060,0.452,0.802,0.757,�k��,7.0,�L
2018/12/06,12:20,-,1.176,0.831,1.490,1.060,0.452,0.802,0.758,�k��,6.6,�L
2018/12/06,12:30,-,1.172,0.829,1.489,1.060,0.454,0.801,0.759,�k��,5.3,�L
2018/12/06,12:40,-,1.172,0.831,1.491,1.063,0.455,0.804,0.759,�k��,8.0,�L
2018/12/06,12:50,-,1.172,0.831,1.488,1.059,0.456,0.802,0.758,�k��,7.7,�L
2018/12/06,13:00,-,1.165,0.828,1.487,1.059,0.457,0.803,0.756,�k��,6.8,�L
2018/12/06,13:10,-,1.169,0.833,1.490,1.058,0.458,0.802,0.760,�k��,6.3,�L
2018/12/06,13:20,-,1.164,0.830,1.487,1.061,0.458,0.802,0.759,�k��,5.7,�L
2018/12/06,13:30,-,1.159,0.829,1.482,1.051,0.459,0.799,0.757,�k��,7.0,�L
2018/12/06,13:40,-,1.147,0.823,1.470,1.049,0.460,0.798,0.756,�k��,6.7,�L
2018/12/06,13:50,-,1.147,0.826,1.465,1.047,0.460,0.799,0.757,�k��,5.9,�L
2018/12/06,14:00,-,1.150,0.824,1.462,1.049,0.461,0.798,0.756,�k�k��,6.6,�L
2018/12/06,14:10,-,1.148,0.826,1.462,1.051,0.460,0.799,0.757,�k�k��,6.8,�L
2018/12/06,14:20,-,1.148,0.824,1.464,1.046,0.460,0.798,0.757,�k�k��,6.1,�L
2018/12/06,14:30,-,1.141,0.823,1.455,1.043,0.458,0.795,0.752,�k�k��,6.4,�L
2018/12/06,14:40,-,1.143,0.821,1.454,1.044,0.461,0.797,0.754,�k��,5.5,�L
2018/12/06,14:50,-,1.142,0.820,1.454,1.044,0.460,0.796,0.753,�k��,6.0,�L
2018/12/06,15:00,-,1.141,0.822,1.452,1.042,0.459,0.794,0.753,�k��,6.9,�L
2018/12/06,15:10,-,1.145,0.819,1.453,1.043,0.459,0.795,0.753,�k�k��,7.2,�L
2018/12/06,15:20,-,1.144,0.821,1.452,1.040,0.457,0.794,0.752,�k�k��,7.7,�L
2018/12/06,15:30,-,1.145,0.820,1.450,1.041,0.458,0.795,0.752,�k�k��,7.6,�L
2018/12/06,15:40,-,1.143,0.821,1.449,1.038,0.457,0.794,0.755,�k�k��,8.2,�L
2018/12/06,15:50,0.772,1.141,0.819,1.447,1.040,0.456,0.793,0.752,�k�k��,8.0,�L
2018/12/06,16:00,0.771,1.142,0.817,1.446,1.038,0.457,0.791,0.749,�k�k��,7.1,�L
2018/12/06,16:10,0.772,1.142,0.817,1.444,1.036,0.455,0.791,0.750,�k�k��,8.9,�L
2018/12/06,16:20,0.771,1.142,0.815,1.443,1.035,0.454,0.794,0.749,�k�k��,8.1,�L
2018/12/06,16:30,0.770,1.142,0.814,1.443,1.038,0.456,0.791,0.750,�k��,7.4,�L
2018/12/06,16:40,0.770,1.138,0.814,1.442,1.035,0.454,0.793,0.750,�k�k��,6.9,�L
2018/12/06,16:50,0.770,1.141,0.814,1.441,1.034,0.455,0.792,0.750,�k�k��,7.4,�L
2018/12/06,17:00,0.767,1.140,0.813,1.440,1.034,0.454,0.792,0.749,�k�k��,7.1,�L
2018/12/06,17:10,0.768,1.140,0.814,1.441,1.033,0.454,0.792,0.750,�k�k��,8.0,�L
2018/12/06,17:20,0.768,1.140,0.815,1.439,1.032,0.454,0.791,0.750,�k�k��,8.9,�L
2018/12/06,17:30,0.769,1.138,0.815,1.441,1.033,0.453,0.790,0.748,�k�k��,8.5,�L
2018/12/06,17:40,0.769,1.139,0.812,1.441,1.032,0.452,0.791,0.749,�k�k��,8.6,�L
2018/12/06,17:50,0.768,1.137,0.812,1.437,1.031,0.453,0.789,0.750,�k�k��,8.2,�L
2018/12/06,18:00,0.767,1.136,0.812,1.440,1.030,0.452,0.791,0.749,�k�k��,8.5,�L
2018/12/06,18:10,0.767,1.137,0.811,1.439,1.029,0.453,0.790,0.748,�k�k��,9.9,�L
2018/12/06,18:20,0.766,1.138,0.809,1.438,1.031,0.453,0.790,0.749,�k�k��,9.2,�L
2018/12/06,18:30,0.766,1.140,0.810,1.437,1.031,0.450,0.790,0.749,�k��,8.9,��
2018/12/06,18:40,0.764,1.139,0.810,1.439,1.031,0.447,0.789,0.747,�k�k��,9.3,��
2018/12/06,18:50,0.765,1.136,0.806,1.437,1.028,0.448,0.788,0.748,�k�k��,9.5,��
2018/12/06,19:00,0.761,1.138,0.806,1.440,1.031,0.447,0.788,0.747,�k�k��,9.4,��
2018/12/06,19:10,0.764,1.136,0.808,1.438,1.028,0.446,0.789,0.747,�k�k��,8.1,��
2018/12/06,19:20,0.763,1.137,0.804,1.438,1.028,0.446,0.789,0.747,�k�k��,8.2,��
2018/12/06,19:30,0.763,1.136,0.806,1.433,1.026,0.445,0.788,0.749,�k�k��,8.3,��
2018/12/06,19:40,0.762,1.136,0.806,1.438,1.029,0.446,0.789,0.747,�k�k��,7.8,��
2018/12/06,19:50,0.762,1.136,0.803,1.436,1.027,0.445,0.790,0.746,�k�k��,6.4,��
2018/12/06,20:00,0.760,1.135,0.804,1.435,1.027,0.445,0.789,0.748,�k�k��,6.3,��
2018/12/06,20:10,0.760,1.136,0.805,1.436,1.028,0.445,0.789,0.747,�k�k��,6.4,�L
2018/12/06,20:20,0.760,1.140,0.805,1.438,1.028,0.444,0.790,0.746,�k,6.5,�L
2018/12/06,20:30,0.761,1.135,0.805,1.438,1.028,0.445,0.790,0.747,�k,5.4,�L
2018/12/06,20:40,0.760,1.137,0.805,1.437,1.030,0.446,0.789,0.749,�k,7.9,��
2018/12/06,20:50,0.761,1.138,0.804,1.437,1.028,0.445,0.787,0.747,�k,8.1,��
2018/12/06,21:00,0.760,1.135,0.804,1.439,1.027,0.445,0.787,0.747,�k,7.0,�L
2018/12/06,21:10,0.760,1.137,0.806,1.437,1.030,0.445,0.788,0.746,�k�k��,6.4,��
2018/12/06,21:20,0.762,1.137,0.804,1.439,1.029,0.445,0.790,0.747,�k�k��,5.7,�L
2018/12/06,21:30,0.761,1.138,0.806,1.440,1.029,0.445,0.789,0.748,�k�k��,6.0,��
2018/12/06,21:40,0.759,1.138,0.805,1.438,1.029,0.446,0.787,0.748,�k�k��,7.2,��
2018/12/06,21:50,0.759,1.139,0.805,1.437,1.029,0.445,0.789,0.747,�k�k��,7.6,��
2018/12/06,22:00,0.761,1.141,0.804,1.438,1.028,0.446,0.788,0.746,�k�k��,7.3,��
2018/12/06,22:10,0.761,1.138,0.806,1.437,1.029,0.445,0.789,0.749,�k�k��,7.2,�L
2018/12/06,22:20,0.760,1.138,0.806,1.437,1.030,0.444,0.787,0.747,�k�k��,6.1,��
2018/12/06,22:30,0.760,1.140,0.806,1.438,1.030,0.444,0.788,0.747,�k�k��,5.6,��
2018/12/06,22:40,0.761,1.138,0.805,1.438,1.029,0.446,0.787,0.749,�k�k��,5.4,��
2018/12/06,22:50,0.763,1.140,0.806,1.439,1.029,0.445,0.789,0.747,�k�k��,4.9,��
2018/12/06,23:00,0.759,1.138,0.804,1.439,1.030,0.446,0.791,0.748,�k�k��,5.3,��
2018/12/06,23:10,0.759,1.139,0.804,1.438,1.030,0.446,0.788,0.747,�k�k��,4.3,��
2018/12/06,23:20,0.764,1.138,0.805,1.439,1.030,0.444,0.790,0.748,�k��,3.6,��
2018/12/06,23:30,0.761,1.140,0.804,1.439,1.028,0.445,0.788,0.749,�k�k��,4.2,��
2018/12/06,23:40,0.761,1.140,0.806,1.439,1.032,0.445,0.789,0.749,�k�k��,4.3,�L
2018/12/06,23:50,0.762,1.142,0.808,1.441,1.031,0.445,0.789,0.747,�k�k��,6.0,�L
